• în România
  • Lista ţărilor
  • Pe 7 zile
  • Temperatura apei
  • Hartă satelitară
  • Meteo pe hartă
  • Widget-uri
  • user-avatar
    Intrare

    Meteo pe oră la Stepanakert

    Astăzi, 22 Iulie, Sâmbătă

    Timp Temperatura Precipitaţii Vânt Presiune Umiditate
    00:00 +24°C° 0 mm 2 m/s 692 mmHg 38%
    01:00 +24°C° 0 mm 2 m/s 692 mmHg 38%
    02:00 +23°C° 0 mm 2 m/s 692 mmHg 37%
    03:00 +23°C° 0 mm 2 m/s 692 mmHg 37%
    04:00 +24°C° 0 mm 2 m/s 692 mmHg 37%
    05:00 +24°C° 0 mm 2 m/s 692 mmHg 38%
    06:00 +24°C° 0 mm 2 m/s 693 mmHg 39%
    07:00 +26°C° 0 mm 2 m/s 693 mmHg 35%
    08:00 +29°C° 0 mm 3 m/s 693 mmHg 32%
    09:00 +31°C° 0 mm 3 m/s 694 mmHg 29%
    10:00 +33°C° 0 mm 3 m/s 694 mmHg 28%
    11:00 +34°C° 0 mm 4 m/s 694 mmHg 26%
    12:00 +35°C° 0 mm 4 m/s 694 mmHg 25%
    13:00 +36°C° 0 mm 4 m/s 693 mmHg 25%
    14:00 +36°C° 0 mm 4 m/s 693 mmHg 25%
    15:00 +37°C° 0 mm 4 m/s 692 mmHg 24%
    16:00 +36°C° 0 mm 4 m/s 692 mmHg 27%
    17:00 +35°C° 0 mm 4 m/s 692 mmHg 29%
    18:00 +34°C° 0 mm 4 m/s 692 mmHg 31%
    19:00 +30°C° 0 mm 3 m/s 691 mmHg 36%
    20:00 +28°C° 0 mm 2 m/s 691 mmHg 40%
    21:00 +26°C° 0 mm 2 m/s 691 mmHg 45%
    22:00 +25°C° 0 mm 2 m/s 691 mmHg 45%
    23:00 +25°C° 0 mm 2 m/s 691 mmHg 46%

    Mâine, 23 Iulie, Duminică

    Timp Temperatura Precipitaţii Vânt Presiune Umiditate
    00:00 +24°C° 0 mm 2 m/s 691 mmHg 46%
    01:00 +24°C° 0 mm 2 m/s 691 mmHg 46%
    02:00 +24°C° 0 mm 2 m/s 690 mmHg 46%
    03:00 +24°C° 0 mm 2 m/s 690 mmHg 45%
    04:00 +24°C° 0 mm 2 m/s 690 mmHg 45%
    05:00 +24°C° 0 mm 2 m/s 690 mmHg 45%
    06:00 +25°C° 0 mm 2 m/s 691 mmHg 44%
    07:00 +27°C° 0 mm 2 m/s 691 mmHg 39%
    08:00 +29°C° 0 mm 2 m/s 691 mmHg 34%
    09:00 +31°C° 0 mm 3 m/s 691 mmHg 28%
    10:00 +33°C° 0 mm 3 m/s 690 mmHg 27%
    11:00 +34°C° 0 mm 3 m/s 690 mmHg 25%
    12:00 +36°C° 0 mm 3 m/s 690 mmHg 23%
    13:00 +36°C° 0 mm 3 m/s 689 mmHg 22%
    14:00 +36°C° 0 mm 3 m/s 689 mmHg 22%
    15:00 +37°C° 0 mm 3 m/s 689 mmHg 22%
    16:00 +36°C° 0 mm 3 m/s 689 mmHg 24%
    17:00 +35°C° 0 mm 3 m/s 688 mmHg 26%
    18:00 +34°C° 0 mm 2 m/s 688 mmHg 28%
    19:00 +31°C° 0 mm 2 m/s 688 mmHg 31%
    20:00 +29°C° 0 mm 2 m/s 689 mmHg 34%
    21:00 +27°C° 0 mm 2 m/s 689 mmHg 37%
    22:00 +26°C° 0 mm 2 m/s 689 mmHg 39%
    23:00 +25°C° 0 mm 2 m/s 689 mmHg 41%

    Poimâine, 24 Iulie, Luni

    Timp Temperatura Precipitaţii Vânt Presiune Umiditate
    00:00 +24°C° 0 mm 2 m/s 689 mmHg 43%
    01:00 +24°C° 0 mm 2 m/s 689 mmHg 44%
    02:00 +24°C° 0 mm 2 m/s 689 mmHg 44%
    03:00 +23°C° 0 mm 2 m/s 689 mmHg 45%
    04:00 +23°C° 0 mm 2 m/s 690 mmHg 44%
    05:00 +24°C° 0 mm 2 m/s 690 mmHg 43%
    06:00 +24°C° 0 mm 2 m/s 690 mmHg 42%
    07:00 +26°C° 0 mm 2 m/s 690 mmHg 41%
    08:00 +28°C° 0 mm 3 m/s 691 mmHg 40%
    09:00 +30°C° 0 mm 4 m/s 691 mmHg 39%
    10:00 +32°C° 0 mm 4 m/s 691 mmHg 37%
    11:00 +33°C° 0 mm 4 m/s 690 mmHg 35%
    12:00 +34°C° 0 mm 5 m/s 690 mmHg 33%
    13:00 +34°C° 0 mm 5 m/s 690 mmHg 33%
    14:00 +35°C° 0 mm 5 m/s 690 mmHg 32%
    15:00 +35°C° 0 mm 5 m/s 689 mmHg 32%
    16:00 +34°C° 0 mm 5 m/s 689 mmHg 34%
    17:00 +33°C° 0 mm 5 m/s 689 mmHg 37%
    18:00 +32°C° 0 mm 5 m/s 688 mmHg 40%
    19:00 +29°C° 0 mm 4 m/s 689 mmHg 46%
    20:00 +27°C° 0 mm 3 m/s 689 mmHg 52%
    21:00 +25°C° 0 mm 2 m/s 689 mmHg 58%
    22:00 +24°C° 0 mm 2 m/s 689 mmHg 59%
    23:00 +24°C° 0 mm 2 m/s 689 mmHg 60%

    25 Iulie, Marţi

    Timp Temperatura Precipitaţii Vânt Presiune Umiditate
    00:00 +23°C° 0 mm 2 m/s 689 mmHg 62%
    01:00 +23°C° 0 mm 2 m/s 689 mmHg 61%
    02:00 +23°C° 0 mm 2 m/s 689 mmHg 60%
    03:00 +22°C° 0 mm 1 m/s 688 mmHg 60%
    04:00 +23°C° 0 mm 1 m/s 689 mmHg 58%
    05:00 +23°C° 0 mm 1 m/s 689 mmHg 56%
    06:00 +24°C° 0 mm 1 m/s 689 mmHg 54%
    07:00 +26°C° 0 mm 2 m/s 689 mmHg 48%
    08:00 +28°C° 0 mm 2 m/s 689 mmHg 43%
    09:00 +29°C° 0 mm 2 m/s 689 mmHg 38%
    10:00 +31°C° 0 mm 2 m/s 689 mmHg 35%
    11:00 +33°C° 0 mm 3 m/s 689 mmHg 32%
    12:00 +34°C° 0 mm 3 m/s 689 mmHg 30%
    13:00 +35°C° 0 mm 3 m/s 688 mmHg 29%
    14:00 +35°C° 0 mm 3 m/s 688 mmHg 29%
    15:00 +36°C° 0 mm 3 m/s 687 mmHg 28%
    16:00 +35°C° 0 mm 3 m/s 687 mmHg 30%
    17:00 +34°C° 0 mm 3 m/s 687 mmHg 32%
    18:00 +34°C° 0 mm 3 m/s 687 mmHg 35%
    19:00 +30°C° 0 mm 2 m/s 687 mmHg 40%
    20:00 +28°C° 0 mm 2 m/s 688 mmHg 45%
    21:00 +26°C° 0 mm 2 m/s 688 mmHg 50%
    22:00 +26°C° 0 mm 2 m/s 688 mmHg 52%
    23:00 +25°C° 0 mm 2 m/s 688 mmHg 53%

    26 Iulie, Miercuri

    Timp Temperatura Precipitaţii Vânt Presiune Umiditate
    00:00 +25°C° 0 mm 2 m/s 688 mmHg 54%
    01:00 +24°C° 0 mm 2 m/s 688 mmHg 55%
    02:00 +24°C° 0 mm 2 m/s 688 mmHg 55%
    03:00 +24°C° 0 mm 1 m/s 688 mmHg 56%
    04:00 +24°C° 0 mm 1 m/s 688 mmHg 55%
    05:00 +25°C° 0 mm 1 m/s 688 mmHg 54%
    06:00 +25°C° 0 mm 2 m/s 689 mmHg 53%
    07:00 +27°C° 0 mm 2 m/s 689 mmHg 47%
    08:00 +29°C° 0 mm 2 m/s 689 mmHg 41%
    09:00 +31°C° 0 mm 2 m/s 690 mmHg 35%
    10:00 +32°C° 0 mm 2 m/s 689 mmHg 32%
    11:00 +34°C° 0 mm 3 m/s 689 mmHg 29%
    12:00 +36°C° 0 mm 3 m/s 689 mmHg 27%
    13:00 +36°C° 0 mm 3 m/s 689 mmHg 26%
    14:00 +37°C° 0 mm 3 m/s 689 mmHg 25%
    15:00 +37°C° 0 mm 3 m/s 689 mmHg 25%
    16:00 +36°C° 0 mm 3 m/s 689 mmHg 27%
    17:00 +36°C° 0 mm 2 m/s 689 mmHg 29%
    18:00 +35°C° 0 mm 2 m/s 689 mmHg 30%
    19:00 +32°C° 0 mm 2 m/s 689 mmHg 35%
    20:00 +30°C° 0 mm 2 m/s 689 mmHg 39%
    21:00 +27°C° 0 mm 2 m/s 690 mmHg 44%
    22:00 +27°C° 0 mm 2 m/s 690 mmHg 44%
    23:00 +26°C° 0 mm 2 m/s 690 mmHg 45%

    27 Iulie, Joi

    Timp Temperatura Precipitaţii Vânt Presiune Umiditate
    00:00 +26°C° 0 mm 2 m/s 690 mmHg 46%
    01:00 +25°C° 0 mm 2 m/s 690 mmHg 46%
    02:00 +25°C° 0 mm 2 m/s 690 mmHg 46%
    03:00 +25°C° 0 mm 2 m/s 690 mmHg 46%
    04:00 +25°C° 0 mm 2 m/s 691 mmHg 46%
    05:00 +25°C° 0 mm 2 m/s 691 mmHg 45%
    06:00 +26°C° 0 mm 2 m/s 691 mmHg 45%
    07:00 +28°C° 0 mm 2 m/s 692 mmHg 41%
    08:00 +30°C° 0 mm 2 m/s 692 mmHg 36%
    09:00 +32°C° 0 mm 2 m/s 692 mmHg 32%
    10:00 +34°C° 0 mm 2 m/s 692 mmHg 30%
    11:00 +35°C° 0 mm 3 m/s 692 mmHg 28%
    12:00 +37°C° 0 mm 3 m/s 692 mmHg 25%
    13:00 +37°C° 0 mm 3 m/s 692 mmHg 25%
    14:00 +38°C° 0 mm 3 m/s 691 mmHg 24%
    15:00 +38°C° 0 mm 3 m/s 691 mmHg 23%
    16:00 +37°C° 0 mm 3 m/s 691 mmHg 25%
    17:00 +37°C° 0 mm 3 m/s 691 mmHg 27%
    18:00 +36°C° 0 mm 3 m/s 691 mmHg 29%
    19:00 +33°C° 0 mm 3 m/s 691 mmHg 33%
    20:00 +30°C° 0 mm 3 m/s 692 mmHg 37%
    21:00 +28°C° 0 mm 3 m/s 692 mmHg 41%
    22:00 +27°C° 0 mm 2 m/s 692 mmHg 42%
    23:00 +27°C° 0 mm 2 m/s 692 mmHg 44%
    Arată mai mult